Time,TemperatureF,DewpointF,PressureIn,WindDirection,WindDirectionDegrees,WindSpeedMPH,WindSpeedGustMPH,Humidity,HourlyPrecipIn,Conditions,Clouds,dailyrainin,SoftwareType,DateUTC
2013-03-07 00:00:00,38.5,26.2,30.03,NNW,330,0.0,11.0,61,0.00,,---,0.13,VWS V14.01,2013-03-07 05:00:00,
2013-03-07 00:01:00,38.5,26.6,30.02,NNW,330,0.0,11.0,62,0.00,,---,0.00,VWS V14.01,2013-03-07 05:01:00,
2013-03-07 00:02:00,38.5,26.6,30.02,NNW,332,3.0,3.0,62,0.00,,---,0.00,VWS V14.01,2013-03-07 05:02:00,
2013-03-07 00:08:00,38.5,26.6,30.02,NW,319,0.0,7.0,62,0.00,,---,0.00,VWS V14.01,2013-03-07 05:08:00,
2013-03-07 00:10:00,38.5,26.6,30.02,NW,314,3.0,7.0,62,0.00,,---,0.00,VWS V14.01,2013-03-07 05:10:00,
2013-03-07 00:16:00,38.3,26.4,30.02,NNW,330,0.0,7.0,62,0.00,,---,0.00,VWS V14.01,2013-03-07 05:16:00,
2013-03-07 00:22:00,38.3,26.0,30.02,NW,316,2.0,6.0,61,0.00,,---,0.00,VWS V14.01,2013-03-07 05:22:00,
2013-03-07 00:28:00,38.3,26.4,30.02,NW,309,4.0,6.0,62,0.00,,---,0.00,VWS V14.01,2013-03-07 05:28:00,
2013-03-07 00:34:00,38.3,26.0,30.02,NW,318,4.0,7.0,61,0.00,,---,0.00,VWS V14.01,2013-03-07 05:34:00,
2013-03-07 00:40:00,38.2,26.3,30.02,NNW,332,2.0,7.0,62,0.00,,---,0.00,VWS V14.01,2013-03-07 05:40:00,
2013-03-07 00:46:00,38.2,26.3,30.02,NW,309,0.0,7.0,62,0.00,,---,0.00,VWS V14.01,2013-03-07 05:46:00,
2013-03-07 00:52:00,38.2,26.3,30.02,NNW,328,0.0,1.0,62,0.00,,---,0.00,VWS V14.01,2013-03-07 05:52:00,
2013-03-07 00:58:00,38.2,26.3,30.02,WSW,258,0.0,4.0,62,0.00,,---,0.00,VWS V14.01,2013-03-07 05:58:00,
2013-03-07 01:04:00,38.2,26.3,30.03,NNW,347,0.0,3.0,62,0.00,,---,0.00,VWS V14.01,2013-03-07 06:04:00,
2013-03-07 01:10:00,38.0,26.1,30.03,NW,307,0.0,5.0,62,0.00,,---,0.00,VWS V14.01,2013-03-07 06:10:00,
2013-03-07 01:16:00,37.9,26.1,30.03,NW,314,0.0,5.0,62,0.00,,---,0.00,VWS V14.01,2013-03-07 06:16:00,
2013-03-07 01:22:00,37.8,26.4,30.03,NW,319,0.0,7.0,63,0.00,,---,0.00,VWS V14.01,2013-03-07 06:22:00,
2013-03-07 01:28:00,37.6,26.2,30.03,WNW,290,0.0,7.0,63,0.00,,---,0.00,VWS V14.01,2013-03-07 06:28:00,
2013-03-07 01:34:00,37.3,26.3,30.03,NW,307,3.0,5.0,64,0.00,,---,0.00,VWS V14.01,2013-03-07 06:34:00,
2013-03-07 01:40:00,37.2,26.5,30.03,NW,312,0.0,5.0,65,0.00,,---,0.00,VWS V14.01,2013-03-07 06:40:00,
2013-03-07 01:46:00,37.2,26.2,30.04,NW,316,0.0,5.0,64,0.00,,---,0.00,VWS V14.01,2013-03-07 06:46:00,
2013-03-07 01:52:00,37.0,26.3,30.04,NW,311,3.0,7.0,65,0.00,,---,0.00,VWS V14.01,2013-03-07 06:52:00,
2013-03-07 01:58:00,37.0,26.3,30.04,NW,321,5.0,9.0,65,0.00,,---,0.00,VWS V14.01,2013-03-07 06:58:00,
2013-03-07 02:04:00,37.0,26.3,30.04,NW,307,2.0,5.0,65,0.00,,---,0.00,VWS V14.01,2013-03-07 07:04:00,
2013-03-07 02:10:00,37.0,26.3,30.04,NW,319,4.0,6.0,65,0.00,,---,0.00,VWS V14.01,2013-03-07 07:10:00,
2013-03-07 02:16:00,37.2,26.5,30.04,NW,323,2.0,7.0,65,0.00,,---,0.00,VWS V14.01,2013-03-07 07:16:00,
2013-03-07 02:23:00,37.3,26.3,30.04,WNW,285,2.0,4.0,64,0.00,,---,0.00,VWS V14.01,2013-03-07 07:23:00,
2013-03-07 02:29:00,37.5,26.8,30.04,SW,230,0.0,7.0,65,0.00,,---,0.00,VWS V14.01,2013-03-07 07:29:00,
2013-03-07 02:35:00,37.5,26.5,30.04,NW,304,1.0,6.0,64,0.00,,---,0.00,VWS V14.01,2013-03-07 07:35:00,
2013-03-07 02:41:00,37.6,26.5,30.04,WSW,255,3.0,6.0,64,0.00,,---,0.00,VWS V14.01,2013-03-07 07:41:00,
2013-03-07 02:46:00,37.8,26.4,30.04,WNW,303,2.0,6.0,63,0.00,,---,0.00,VWS V14.01,2013-03-07 07:46:00,
2013-03-07 02:53:00,37.9,26.8,30.04,WNW,300,6.0,9.0,64,0.00,,---,0.00,VWS V14.01,2013-03-07 07:53:00,
2013-03-07 02:59:00,37.8,26.4,30.04,NW,314,3.0,12.0,63,0.00,,---,0.00,VWS V14.01,2013-03-07 07:59:00,
2013-03-07 03:05:00,37.8,26.7,30.04,WNW,301,1.0,9.0,64,0.00,,---,0.00,VWS V14.01,2013-03-07 08:05:00,
2013-03-07 03:11:00,37.6,26.5,30.04,NNW,334,3.0,10.0,64,0.00,,---,0.00,VWS V14.01,2013-03-07 08:11:00,
2013-03-07 03:17:00,37.6,26.5,30.03,NW,317,1.0,5.0,64,0.00,,---,0.00,VWS V14.01,2013-03-07 08:17:00,
2013-03-07 03:23:00,37.6,26.5,30.03,WNW,291,4.0,9.0,64,0.00,,---,0.00,VWS V14.01,2013-03-07 08:23:00,
2013-03-07 03:29:00,37.5,26.5,30.03,NW,307,6.0,10.0,64,0.00,,---,0.00,VWS V14.01,2013-03-07 08:29:00,
2013-03-07 03:35:00,37.3,26.3,30.02,NW,307,11.0,12.0,64,0.00,,---,0.00,VWS V14.01,2013-03-07 08:35:00,
2013-03-07 03:41:00,37.3,26.3,30.02,NNW,345,2.0,14.0,64,0.00,,---,0.00,VWS V14.01,2013-03-07 08:41:00,
2013-03-07 03:47:00,37.3,26.3,30.02,West,259,0.0,6.0,64,0.00,,---,0.00,VWS V14.01,2013-03-07 08:47:00,
2013-03-07 03:53:00,37.3,26.3,30.02,NNW,328,2.0,9.0,64,0.00,,---,0.00,VWS V14.01,2013-03-07 08:53:00,
2013-03-07 03:59:00,37.3,26.6,30.02,NW,314,0.0,9.0,65,0.00,,---,0.00,VWS V14.01,2013-03-07 08:59:00,
2013-03-07 04:05:00,37.3,26.6,30.03,WNW,303,3.0,5.0,65,0.00,,---,0.00,VWS V14.01,2013-03-07 09:05:00,
2013-03-07 04:11:00,37.5,26.8,30.03,NW,317,0.0,5.0,65,0.00,,---,0.00,VWS V14.01,2013-03-07 09:11:00,
2013-03-07 04:17:00,37.5,26.5,30.04,WNW,288,0.0,3.0,64,0.00,,---,0.00,VWS V14.01,2013-03-07 09:17:00,
2013-03-07 04:23:00,37.6,26.5,30.04,NW,321,0.0,5.0,64,0.00,,---,0.00,VWS V14.01,2013-03-07 09:23:00,
2013-03-07 04:29:00,37.6,26.5,30.04,NW,321,2.0,5.0,64,0.00,,---,0.00,VWS V14.01,2013-03-07 09:29:00,
2013-03-07 04:35:00,37.8,26.7,30.04,WNW,295,3.0,6.0,64,0.00,,---,0.00,VWS V14.01,2013-03-07 09:35:00,
2013-03-07 04:42:00,37.8,26.4,30.04,North,352,2.0,6.0,63,0.00,,---,0.00,VWS V14.01,2013-03-07 09:42:00,
2013-03-07 04:48:00,37.8,26.7,30.04,NNW,335,3.0,5.0,64,0.00,,---,0.00,VWS V14.01,2013-03-07 09:48:00,
2013-03-07 04:54:00,37.8,26.7,30.04,NW,321,5.0,9.0,64,0.00,,---,0.00,VWS V14.01,2013-03-07 09:54:00,
2013-03-07 05:00:00,37.8,26.4,30.04,NW,314,3.0,9.0,63,0.00,,---,0.00,VWS V14.01,2013-03-07 10:00:00,
2013-03-07 05:06:00,37.8,26.7,30.04,NNW,340,3.0,12.0,64,0.00,,---,0.00,VWS V14.01,2013-03-07 10:06:00,
2013-03-07 05:12:00,37.8,26.4,30.04,NNW,336,4.0,12.0,63,0.00,,---,0.00,VWS V14.01,2013-03-07 10:12:00,
2013-03-07 05:18:00,37.6,26.5,30.04,NNW,343,3.0,5.0,64,0.00,,---,0.00,VWS V14.01,2013-03-07 10:18:00,
2013-03-07 05:24:00,37.6,26.2,30.04,NNW,335,3.0,9.0,63,0.00,,---,0.00,VWS V14.01,2013-03-07 10:24:00,
2013-03-07 05:30:00,37.8,26.4,30.04,NNW,333,5.0,9.0,63,0.00,,---,0.00,VWS V14.01,2013-03-07 10:30:00,
2013-03-07 05:36:00,37.9,26.1,30.05,NNW,342,7.0,13.0,62,0.00,,---,0.00,VWS V14.01,2013-03-07 10:36:00,
2013-03-07 05:42:00,37.9,26.1,30.05,North,2,9.0,15.0,62,0.00,,---,0.00,VWS V14.01,2013-03-07 10:42:00,
2013-03-07 05:48:00,37.9,26.1,30.06,NNW,343,4.0,13.0,62,0.00,,---,0.00,VWS V14.01,2013-03-07 10:48:00,
2013-03-07 05:54:00,37.9,25.7,30.06,NNW,346,3.0,13.0,61,0.00,,---,0.00,VWS V14.01,2013-03-07 10:54:00,
2013-03-07 06:00:00,37.8,25.6,30.06,North,352,3.0,15.0,61,0.00,,---,0.00,VWS V14.01,2013-03-07 11:00:00,
2013-03-07 06:06:00,37.8,25.6,30.06,WNW,295,15.0,18.0,61,0.00,,---,0.00,VWS V14.01,2013-03-07 11:06:00,
2013-03-07 06:12:00,37.8,25.6,30.06,North,0,5.0,21.0,61,0.00,,---,0.00,VWS V14.01,2013-03-07 11:12:00,
2013-03-07 06:18:00,37.8,25.6,30.07,North,356,4.0,11.0,61,0.00,,---,0.00,VWS V14.01,2013-03-07 11:18:00,
2013-03-07 06:24:00,37.8,25.6,30.07,NNW,344,2.0,14.0,61,0.00,,---,0.00,VWS V14.01,2013-03-07 11:24:00,
2013-03-07 06:30:00,37.6,25.4,30.09,WNW,300,6.0,16.0,61,0.00,,---,0.00,VWS V14.01,2013-03-07 11:30:00,
2013-03-07 06:36:00,37.5,25.7,30.09,WNW,302,6.0,9.0,62,0.00,,---,0.00,VWS V14.01,2013-03-07 11:36:00,
2013-03-07 06:42:00,37.3,25.5,30.09,WNW,302,0.0,9.0,62,0.00,,---,0.00,VWS V14.01,2013-03-07 11:42:00,
2013-03-07 06:48:00,37.0,25.6,30.10,NW,314,0.0,3.0,63,0.00,,---,0.00,VWS V14.01,2013-03-07 11:48:00,
2013-03-07 06:55:00,36.8,26.1,30.10,NW,314,0.0,3.0,65,0.00,,---,0.00,VWS V14.01,2013-03-07 11:55:00,
2013-03-07 07:01:00,36.5,25.9,30.11,NW,314,0.0,3.0,65,0.00,,---,0.00,VWS V14.01,2013-03-07 12:01:00,
2013-03-07 07:07:00,36.5,25.9,30.11,NW,314,0.0,0.0,65,0.00,,---,0.00,VWS V14.01,2013-03-07 12:07:00,
2013-03-07 07:13:00,36.3,25.7,30.11,NW,321,0.0,4.0,65,0.00,,---,0.00,VWS V14.01,2013-03-07 12:13:00,
2013-03-07 07:19:00,36.2,25.6,30.11,NW,323,6.0,7.0,65,0.00,,---,0.00,VWS V14.01,2013-03-07 12:19:00,
2013-03-07 07:25:00,36.2,25.6,30.11,WNW,303,2.0,10.0,65,0.00,,---,0.00,VWS V14.01,2013-03-07 12:25:00,
2013-03-07 07:31:00,36.5,25.5,30.12,West,262,0.0,10.0,64,0.00,,---,0.00,VWS V14.01,2013-03-07 12:31:00,
2013-03-07 07:37:00,36.6,25.6,30.12,NW,305,3.0,9.0,64,0.00,,---,0.00,VWS V14.01,2013-03-07 12:37:00,
2013-03-07 07:43:00,36.8,25.4,30.12,NNW,335,4.0,9.0,63,0.00,,---,0.00,VWS V14.01,2013-03-07 12:43:00,
2013-03-07 07:49:00,37.2,25.8,30.13,WNW,298,3.0,7.0,63,0.00,,---,0.00,VWS V14.01,2013-03-07 12:49:00,
2013-03-07 07:55:00,37.6,25.4,30.13,NNW,335,9.0,11.0,61,0.00,,---,0.00,VWS V14.01,2013-03-07 12:55:00,
2013-03-07 08:01:00,37.9,25.7,30.13,NW,313,2.0,12.0,61,0.00,,---,0.00,VWS V14.01,2013-03-07 13:01:00,
2013-03-07 08:07:00,38.3,25.2,30.13,NNW,345,0.0,10.0,59,0.00,,---,0.00,VWS V14.01,2013-03-07 13:07:00,
2013-03-07 08:13:00,38.6,25.9,30.13,WNW,300,2.0,10.0,60,0.00,,---,0.00,VWS V14.01,2013-03-07 13:13:00,
2013-03-07 08:19:00,39.1,26.4,30.14,West,273,0.0,9.0,60,0.00,,---,0.00,VWS V14.01,2013-03-07 13:19:00,
2013-03-07 08:25:00,39.5,26.0,30.14,WNW,303,8.0,14.0,58,0.00,,---,0.00,VWS V14.01,2013-03-07 13:25:00,
2013-03-07 08:31:00,39.8,26.7,30.14,WNW,290,5.0,14.0,59,0.00,,---,0.00,VWS V14.01,2013-03-07 13:31:00,
2013-03-07 08:37:00,39.9,25.5,30.14,NNW,330,3.0,12.0,56,0.00,,---,0.00,VWS V14.01,2013-03-07 13:37:00,
2013-03-07 08:44:00,40.1,25.7,30.14,WNW,298,10.0,14.0,56,0.00,,---,0.00,VWS V14.01,2013-03-07 13:44:00,
2013-03-07 08:50:00,39.8,25.4,30.14,NNW,333,5.0,15.0,56,0.00,,---,0.00,VWS V14.01,2013-03-07 13:50:00,
2013-03-07 08:56:00,39.5,25.1,30.14,NW,313,10.0,20.0,56,0.00,,---,0.00,VWS V14.01,2013-03-07 13:56:00,
2013-03-07 09:01:00,39.6,25.2,30.14,NNW,335,13.0,20.0,56,0.00,,---,0.00,VWS V14.01,2013-03-07 14:01:00,
2013-03-07 09:08:00,39.8,25.8,30.14,NW,312,7.0,20.0,57,0.00,,---,0.00,VWS V14.01,2013-03-07 14:08:00,
2013-03-07 09:14:00,39.9,25.5,30.14,NNE,20,11.0,20.0,56,0.00,,---,0.00,VWS V14.01,2013-03-07 14:14:00,
2013-03-07 09:20:00,39.6,25.2,30.13,WNW,288,4.0,24.0,56,0.00,,---,0.00,VWS V14.01,2013-03-07 14:20:00,
2013-03-07 09:26:00,39.6,25.6,30.13,NW,326,15.0,24.0,57,0.00,,---,0.00,VWS V14.01,2013-03-07 14:26:00,
2013-03-07 09:31:00,39.6,25.6,30.14,NNW,327,13.0,24.0,57,0.00,,---,0.00,VWS V14.01,2013-03-07 14:31:00,
2013-03-07 09:36:00,39.8,25.4,30.14,NNW,338,3.0,17.0,56,0.00,,---,0.00,VWS V14.01,2013-03-07 14:36:00,
2013-03-07 09:42:00,40.3,25.9,30.14,NW,310,9.0,17.0,56,0.00,,---,0.00,VWS V14.01,2013-03-07 14:42:00,
2013-03-07 09:48:00,40.6,25.3,30.14,West,277,5.0,18.0,54,0.00,,---,0.00,VWS V14.01,2013-03-07 14:48:00,
2013-03-07 09:54:00,40.5,25.6,30.14,North,359,3.0,21.0,55,0.00,,---,0.00,VWS V14.01,2013-03-07 14:54:00,
2013-03-07 10:00:00,40.6,25.7,30.14,WNW,303,6.0,21.0,55,0.00,,---,0.00,VWS V14.01,2013-03-07 15:00:00,
2013-03-07 10:06:00,40.9,25.5,30.14,NW,311,7.0,16.0,54,0.00,,---,0.00,VWS V14.01,2013-03-07 15:06:00,
2013-03-07 10:12:00,41.3,25.5,30.14,WNW,295,13.0,17.0,53,0.00,,---,0.00,VWS V14.01,2013-03-07 15:12:00,
2013-03-07 10:18:00,41.6,25.3,30.15,NNW,335,10.0,11.0,52,0.00,,---,0.00,VWS V14.01,2013-03-07 15:18:00,
2013-03-07 10:24:00,42.2,27.6,30.15,NNW,345,5.0,13.0,56,0.00,,---,0.00,VWS V14.01,2013-03-07 15:24:00,
2013-03-07 10:30:00,42.2,26.3,30.15,NW,312,7.0,13.0,53,0.00,,---,0.00,VWS V14.01,2013-03-07 15:30:00,
2013-03-07 10:36:00,42.3,25.9,30.15,NW,324,5.0,12.0,52,0.00,,---,0.00,VWS V14.01,2013-03-07 15:36:00,
2013-03-07 10:42:00,42.3,25.9,30.15,NW,314,11.0,14.0,52,0.00,,---,0.00,VWS V14.01,2013-03-07 15:42:00,
2013-03-07 10:48:00,42.1,25.3,30.15,North,359,4.0,15.0,51,0.00,,---,0.00,VWS V14.01,2013-03-07 15:48:00,
2013-03-07 10:55:00,42.1,25.3,30.15,NNW,328,4.0,15.0,51,0.00,,---,0.00,VWS V14.01,2013-03-07 15:55:00,
2013-03-07 11:01:00,42.3,25.9,30.15,NNW,333,6.0,15.0,52,0.00,,---,0.00,VWS V14.01,2013-03-07 16:01:00,
2013-03-07 11:07:00,42.6,25.8,30.15,NNW,342,7.0,12.0,51,0.00,,---,0.00,VWS V14.01,2013-03-07 16:07:00,
2013-03-07 11:13:00,42.3,25.9,30.15,North,7,11.0,16.0,52,0.00,,---,0.00,VWS V14.01,2013-03-07 16:13:00,
2013-03-07 11:19:00,42.9,26.0,30.14,NNW,342,8.0,18.0,51,0.00,,---,0.00,VWS V14.01,2013-03-07 16:19:00,
2013-03-07 11:25:00,43.1,26.7,30.14,WNW,300,7.0,18.0,52,0.00,,---,0.00,VWS V14.01,2013-03-07 16:25:00,
2013-03-07 11:31:00,42.6,25.8,30.15,NW,311,17.0,18.0,51,0.00,,---,0.00,VWS V14.01,2013-03-07 16:31:00,
2013-03-07 11:37:00,42.6,26.2,30.15,North,357,12.0,17.0,52,0.00,,---,0.00,VWS V14.01,2013-03-07 16:37:00,
2013-03-07 11:43:00,42.8,25.9,30.15,NW,305,9.0,17.0,51,0.00,,---,0.00,VWS V14.01,2013-03-07 16:43:00,
2013-03-07 11:49:00,43.1,26.7,30.15,NNW,344,11.0,13.0,52,0.00,,---,0.00,VWS V14.01,2013-03-07 16:49:00,
2013-03-07 11:55:00,43.1,26.2,30.15,NW,320,5.0,13.0,51,0.00,,---,0.00,VWS V14.01,2013-03-07 16:55:00,
2013-03-07 12:01:00,43.1,25.7,30.14,NNW,330,10.0,16.0,50,0.00,,---,0.00,VWS V14.01,2013-03-07 17:01:00,
2013-03-07 12:08:00,42.9,26.5,30.14,North,350,9.0,16.0,52,0.00,,---,0.00,VWS V14.01,2013-03-07 17:08:00,
2013-03-07 12:14:00,42.8,26.9,30.14,NW,321,6.0,16.0,53,0.00,,---,0.00,VWS V14.01,2013-03-07 17:14:00,
2013-03-07 12:20:00,42.9,26.0,30.13,North,1,2.0,13.0,51,0.00,,---,0.00,VWS V14.01,2013-03-07 17:20:00,
2013-03-07 12:26:00,42.9,26.0,30.13,NNW,335,7.0,13.0,51,0.00,,---,0.00,VWS V14.01,2013-03-07 17:26:00,
2013-03-07 12:31:00,42.9,26.0,30.13,WNW,300,14.0,17.0,51,0.00,,---,0.00,VWS V14.01,2013-03-07 17:31:00,
2013-03-07 12:36:00,43.5,27.5,30.13,WNW,301,6.0,18.0,53,0.00,,---,0.00,VWS V14.01,2013-03-07 17:36:00,
2013-03-07 12:42:00,43.6,26.7,30.13,NNW,333,4.0,18.0,51,0.00,,---,0.00,VWS V14.01,2013-03-07 17:42:00,
2013-03-07 12:48:00,44.1,27.1,30.13,WNW,296,3.0,15.0,51,0.00,,---,0.00,VWS V14.01,2013-03-07 17:48:00,
2013-03-07 12:54:00,44.2,26.3,30.13,WNW,295,4.0,21.0,49,0.00,,---,0.00,VWS V14.01,2013-03-07 17:54:00,
2013-03-07 13:00:00,43.6,26.7,30.12,NW,321,4.0,21.0,51,0.00,,---,0.00,VWS V14.01,2013-03-07 18:00:00,
2013-03-07 13:06:00,43.9,26.5,30.12,NW,321,5.0,13.0,50,0.00,,---,0.00,VWS V14.01,2013-03-07 18:06:00,
2013-03-07 13:12:00,43.9,26.5,30.12,North,357,6.0,16.0,50,0.00,,---,0.00,VWS V14.01,2013-03-07 18:12:00,
2013-03-07 13:18:00,43.8,26.4,30.12,WNW,286,3.0,12.0,50,0.00,,---,0.00,VWS V14.01,2013-03-07 18:18:00,
2013-03-07 13:24:00,43.8,26.4,30.12,NNE,15,4.0,15.0,50,0.00,,---,0.00,VWS V14.01,2013-03-07 18:24:00,
2013-03-07 13:30:00,43.5,26.1,30.12,North,349,1.0,15.0,50,0.00,,---,0.00,VWS V14.01,2013-03-07 18:30:00,
2013-03-07 13:36:00,44.2,26.8,30.12,NNW,340,5.0,16.0,50,0.00,,---,0.00,VWS V14.01,2013-03-07 18:36:00,
2013-03-07 13:42:00,44.2,26.8,30.12,NW,315,8.0,16.0,50,0.00,,---,0.00,VWS V14.01,2013-03-07 18:42:00,
2013-03-07 13:48:00,44.2,27.2,30.11,SSW,203,2.0,11.0,51,0.00,,---,0.00,VWS V14.01,2013-03-07 18:48:00,
2013-03-07 13:55:00,44.1,26.7,30.11,NNW,333,4.0,14.0,50,0.00,,---,0.00,VWS V14.01,2013-03-07 18:55:00,
2013-03-07 14:01:00,43.9,26.5,30.11,NW,324,5.0,16.0,50,0.00,,---,0.00,VWS V14.01,2013-03-07 19:01:00,
2013-03-07 14:07:00,44.3,26.9,30.11,NW,326,13.0,15.0,50,0.00,,---,0.00,VWS V14.01,2013-03-07 19:07:00,
2013-03-07 14:13:00,44.2,26.3,30.11,WNW,302,7.0,18.0,49,0.00,,---,0.00,VWS V14.01,2013-03-07 19:13:00,
2013-03-07 14:19:00,44.1,26.7,30.10,WNW,293,3.0,13.0,50,0.00,,---,0.00,VWS V14.01,2013-03-07 19:19:00,
2013-03-07 14:25:00,44.3,25.9,30.10,NW,316,11.0,17.0,48,0.00,,---,0.00,VWS V14.01,2013-03-07 19:25:00,
2013-03-07 14:31:00,43.8,26.4,30.10,WSW,257,3.0,17.0,50,0.00,,---,0.00,VWS V14.01,2013-03-07 19:31:00,
2013-03-07 14:37:00,44.2,25.8,30.10,WNW,302,7.0,17.0,48,0.00,,---,0.00,VWS V14.01,2013-03-07 19:37:00,
2013-03-07 14:43:00,44.9,25.9,30.10,NNW,328,13.0,17.0,47,0.00,,---,0.00,VWS V14.01,2013-03-07 19:43:00,
2013-03-07 14:49:00,44.8,25.3,30.11,West,281,7.0,18.0,46,0.00,,---,0.00,VWS V14.01,2013-03-07 19:49:00,
2013-03-07 14:55:00,44.6,26.6,30.11,WNW,290,0.0,18.0,49,0.00,,---,0.00,VWS V14.01,2013-03-07 19:55:00,
2013-03-07 15:01:00,44.9,26.9,30.11,NNW,333,12.0,15.0,49,0.00,,---,0.00,VWS V14.01,2013-03-07 20:01:00,
2013-03-07 15:07:00,44.6,25.1,30.11,NW,323,9.0,19.0,46,0.00,,---,0.00,VWS V14.01,2013-03-07 20:07:00,
2013-03-07 15:13:00,44.6,25.6,30.11,NNW,344,11.0,19.0,47,0.00,,---,0.00,VWS V14.01,2013-03-07 20:13:00,
2013-03-07 15:19:00,45.2,25.7,30.12,NW,312,6.0,14.0,46,0.00,,---,0.00,VWS V14.01,2013-03-07 20:19:00,
2013-03-07 15:25:00,45.2,25.7,30.12,WNW,300,6.0,19.0,46,0.00,,---,0.00,VWS V14.01,2013-03-07 20:25:00,
2013-03-07 15:31:00,44.8,25.8,30.11,West,264,3.0,19.0,47,0.00,,---,0.00,VWS V14.01,2013-03-07 20:31:00,
2013-03-07 15:37:00,45.1,25.6,30.11,NW,311,15.0,15.0,46,0.00,,---,0.00,VWS V14.01,2013-03-07 20:37:00,
2013-03-07 15:43:00,45.4,25.3,30.11,NW,315,12.0,16.0,45,0.00,,---,0.00,VWS V14.01,2013-03-07 20:43:00,
2013-03-07 15:49:00,45.2,25.7,30.11,NNW,328,10.0,14.0,46,0.00,,---,0.00,VWS V14.01,2013-03-07 20:49:00,
2013-03-07 15:55:00,44.8,25.3,30.11,NNW,332,12.0,22.0,46,0.00,,---,0.00,VWS V14.01,2013-03-07 20:55:00,
2013-03-07 16:01:00,44.3,24.3,30.12,NW,309,7.0,22.0,45,0.00,,---,0.00,VWS V14.01,2013-03-07 21:01:00,
2013-03-07 16:08:00,44.6,24.6,30.12,NW,308,6.0,16.0,45,0.00,,---,0.00,VWS V14.01,2013-03-07 21:08:00,
2013-03-07 16:14:00,44.5,25.0,30.12,North,359,11.0,16.0,46,0.00,,---,0.00,VWS V14.01,2013-03-07 21:14:00,
2013-03-07 16:20:00,44.5,25.5,30.12,NW,322,5.0,17.0,47,0.00,,---,0.00,VWS V14.01,2013-03-07 21:20:00,
2013-03-07 16:26:00,44.3,24.3,30.12,NW,304,13.0,17.0,45,0.00,,---,0.00,VWS V14.01,2013-03-07 21:26:00,
2013-03-07 16:31:00,44.1,24.7,30.12,NW,319,6.0,17.0,46,0.00,,---,0.00,VWS V14.01,2013-03-07 21:31:00,
2013-03-07 16:38:00,44.1,24.7,30.12,NNW,328,0.0,17.0,46,0.00,,---,0.00,VWS V14.01,2013-03-07 21:38:00,
2013-03-07 16:44:00,43.9,24.5,30.12,WNW,285,2.0,17.0,46,0.00,,---,0.00,VWS V14.01,2013-03-07 21:44:00,
2013-03-07 16:50:00,43.9,24.5,30.13,WNW,300,5.0,9.0,46,0.00,,---,0.00,VWS V14.01,2013-03-07 21:50:00,
2013-03-07 16:56:00,43.6,23.7,30.13,NW,319,6.0,13.0,45,0.00,,---,0.00,VWS V14.01,2013-03-07 21:56:00,
2013-03-07 17:02:00,43.3,23.9,30.13,NNW,336,13.0,13.0,46,0.00,,---,0.00,VWS V14.01,2013-03-07 22:02:00,
2013-03-07 17:08:00,43.2,24.4,30.13,NNW,341,7.0,14.0,47,0.00,,---,0.00,VWS V14.01,2013-03-07 22:08:00,
2013-03-07 17:14:00,42.9,23.6,30.13,WNW,285,9.0,18.0,46,0.00,,---,0.00,VWS V14.01,2013-03-07 22:14:00,
2013-03-07 17:20:00,42.8,23.5,30.14,WNW,301,9.0,16.0,46,0.00,,---,0.00,VWS V14.01,2013-03-07 22:20:00,
2013-03-07 17:26:00,42.5,23.7,30.14,West,276,6.0,16.0,47,0.00,,---,0.00,VWS V14.01,2013-03-07 22:26:00,
2013-03-07 17:32:00,42.3,23.5,30.15,NW,321,3.0,10.0,47,0.00,,---,0.00,VWS V14.01,2013-03-07 22:32:00,
2013-03-07 17:38:00,42.2,22.9,30.15,WNW,302,5.0,15.0,46,0.00,,---,0.00,VWS V14.01,2013-03-07 22:38:00,
2013-03-07 17:44:00,41.9,23.2,30.15,NNW,342,6.0,15.0,47,0.00,,---,0.00,VWS V14.01,2013-03-07 22:44:00,
2013-03-07 17:50:00,41.8,23.6,30.15,NW,313,8.0,17.0,48,0.00,,---,0.00,VWS V14.01,2013-03-07 22:50:00,
2013-03-07 17:56:00,41.5,23.3,30.15,NW,321,1.0,17.0,48,0.00,,---,0.00,VWS V14.01,2013-03-07 22:56:00,
2013-03-07 18:02:00,41.2,23.0,30.16,NW,311,6.0,8.0,48,0.00,,---,0.00,VWS V14.01,2013-03-07 23:02:00,
2013-03-07 18:08:00,41.1,22.9,30.16,NW,307,5.0,8.0,48,0.00,,---,0.00,VWS V14.01,2013-03-07 23:08:00,
2013-03-07 18:14:00,40.8,23.1,30.16,NW,323,4.0,10.0,49,0.00,,---,0.00,VWS V14.01,2013-03-07 23:14:00,
2013-03-07 18:21:00,40.3,22.7,30.16,NW,324,2.0,7.0,49,0.00,,---,0.00,VWS V14.01,2013-03-07 23:21:00,
2013-03-07 18:27:00,40.2,23.1,30.16,NW,306,4.0,9.0,50,0.00,,---,0.00,VWS V14.01,2013-03-07 23:27:00,
2013-03-07 18:33:00,40.1,23.0,30.17,NW,307,5.0,6.0,50,0.00,,---,0.00,VWS V14.01,2013-03-07 23:33:00,
2013-03-07 18:39:00,39.9,22.8,30.17,NW,309,9.0,10.0,50,0.00,,---,0.00,VWS V14.01,2013-03-07 23:39:00,
2013-03-07 18:45:00,39.9,22.3,30.17,WNW,302,3.0,15.0,49,0.00,,---,0.00,VWS V14.01,2013-03-07 23:45:00,
2013-03-07 18:51:00,40.1,22.5,30.18,NNW,346,2.0,13.0,49,0.00,,---,0.00,VWS V14.01,2013-03-07 23:51:00,
2013-03-07 18:57:00,39.9,22.8,30.18,NNW,340,5.0,13.0,50,0.00,,---,0.00,VWS V14.01,2013-03-07 23:57:00,
2013-03-07 19:03:00,39.8,22.7,30.19,NNW,331,0.0,5.0,50,0.00,,---,0.00,VWS V14.01,2013-03-08 00:03:00,
2013-03-07 19:09:00,39.5,22.9,30.19,NW,321,4.0,9.0,51,0.00,,---,0.00,VWS V14.01,2013-03-08 00:09:00,
2013-03-07 19:15:00,39.3,22.2,30.19,WNW,296,7.0,13.0,50,0.00,,---,0.00,VWS V14.01,2013-03-08 00:15:00,
2013-03-07 19:21:00,39.3,22.2,30.20,NNW,347,3.0,15.0,50,0.00,,---,0.00,VWS V14.01,2013-03-08 00:21:00,
2013-03-07 19:27:00,39.2,22.6,30.20,NNW,337,7.0,15.0,51,0.00,,---,0.00,VWS V14.01,2013-03-08 00:27:00,
2013-03-07 19:33:00,38.9,22.3,30.20,NW,325,6.0,10.0,51,0.00,,---,0.00,VWS V14.01,2013-03-08 00:33:00,
2013-03-07 19:39:00,38.9,22.3,30.20,NW,320,2.0,10.0,51,0.00,,---,0.00,VWS V14.01,2013-03-08 00:39:00,
2013-03-07 19:45:00,38.6,22.5,30.20,NW,326,0.0,10.0,52,0.00,,---,0.00,VWS V14.01,2013-03-08 00:45:00,
2013-03-07 19:51:00,38.5,22.4,30.20,NNW,337,3.0,6.0,52,0.00,,---,0.00,VWS V14.01,2013-03-08 00:51:00,
2013-03-07 19:57:00,38.2,22.6,30.20,NW,315,3.0,7.0,53,0.00,,---,0.00,VWS V14.01,2013-03-08 00:57:00,
2013-03-07 20:03:00,37.9,22.3,30.20,NNW,345,0.0,3.0,53,0.00,,---,0.00,VWS V14.01,2013-03-08 01:03:00,
2013-03-07 20:09:00,37.6,22.5,30.20,NW,313,0.0,4.0,54,0.00,,---,0.00,VWS V14.01,2013-03-08 01:09:00,
2013-03-07 20:15:00,37.6,22.5,30.20,NNW,329,0.0,5.0,54,0.00,,---,0.00,VWS V14.01,2013-03-08 01:15:00,
2013-03-07 20:21:00,37.3,22.6,30.20,NNW,329,0.0,1.0,55,0.00,,---,0.00,VWS V14.01,2013-03-08 01:21:00,
2013-03-07 20:27:00,37.2,22.5,30.20,NNW,329,0.0,1.0,55,0.00,,---,0.00,VWS V14.01,2013-03-08 01:27:00,
2013-03-07 20:33:00,37.0,22.4,30.21,NNW,329,0.0,0.0,55,0.00,,---,0.00,VWS V14.01,2013-03-08 01:33:00,
2013-03-07 20:39:00,36.9,22.3,30.21,NNW,329,0.0,0.0,55,0.00,,---,0.00,VWS V14.01,2013-03-08 01:39:00,
2013-03-07 20:45:00,36.6,22.4,30.21,NNW,338,0.0,2.0,56,0.00,,---,0.00,VWS V14.01,2013-03-08 01:45:00,
2013-03-07 20:52:00,36.3,22.1,30.21,NNW,338,0.0,1.0,56,0.00,,---,0.00,VWS V14.01,2013-03-08 01:52:00,
2013-03-07 20:58:00,36.3,22.1,30.21,NNW,337,0.0,2.0,56,0.00,,---,0.00,VWS V14.01,2013-03-08 01:58:00,
2013-03-07 21:04:00,36.2,22.0,30.21,NNW,337,0.0,0.0,56,0.00,,---,0.00,VWS V14.01,2013-03-08 02:04:00,
2013-03-07 21:10:00,35.9,22.2,30.21,NNW,337,0.0,0.0,57,0.00,,---,0.00,VWS V14.01,2013-03-08 02:10:00,
2013-03-07 21:16:00,35.8,22.1,30.21,NNW,337,0.0,0.0,57,0.00,,---,0.00,VWS V14.01,2013-03-08 02:16:00,
2013-03-07 21:22:00,35.6,21.9,30.21,NNW,337,0.0,0.0,57,0.00,,---,0.00,VWS V14.01,2013-03-08 02:22:00,
2013-03-07 21:28:00,35.5,22.2,30.21,NNW,337,0.0,0.0,58,0.00,,---,0.00,VWS V14.01,2013-03-08 02:28:00,
2013-03-07 21:34:00,35.2,22.3,30.21,NNW,337,0.0,0.0,59,0.00,,---,0.00,VWS V14.01,2013-03-08 02:34:00,
2013-03-07 21:40:00,34.9,22.4,30.21,NNW,337,0.0,0.0,60,0.00,,---,0.00,VWS V14.01,2013-03-08 02:40:00,
2013-03-07 21:46:00,34.6,22.5,30.22,NNW,337,0.0,0.0,61,0.00,,---,0.00,VWS V14.01,2013-03-08 02:46:00,
2013-03-07 21:52:00,34.3,22.6,30.22,NNW,337,0.0,0.0,62,0.00,,---,0.00,VWS V14.01,2013-03-08 02:52:00,
2013-03-07 21:58:00,34.3,22.3,30.22,NNW,337,0.0,0.0,61,0.00,,---,0.00,VWS V14.01,2013-03-08 02:58:00,
2013-03-07 22:04:00,34.4,22.4,30.22,NNW,337,0.0,0.0,61,0.00,,---,0.00,VWS V14.01,2013-03-08 03:04:00,
2013-03-07 22:10:00,34.4,22.4,30.22,NNW,337,0.0,0.0,61,0.00,,---,0.00,VWS V14.01,2013-03-08 03:10:00,
2013-03-07 22:16:00,34.6,22.5,30.22,NNW,337,0.0,1.0,61,0.00,,---,0.00,VWS V14.01,2013-03-08 03:16:00,
2013-03-07 22:22:00,34.6,22.5,30.22,NNW,337,0.0,0.0,61,0.00,,---,0.00,VWS V14.01,2013-03-08 03:22:00,
2013-03-07 22:28:00,34.6,22.5,30.22,NNW,337,0.0,1.0,61,0.00,,---,0.00,VWS V14.01,2013-03-08 03:28:00,
2013-03-07 22:34:00,34.6,22.2,30.22,NNW,337,1.0,1.0,60,0.00,,---,0.00,VWS V14.01,2013-03-08 03:34:00,
2013-03-07 22:40:00,34.9,22.0,30.22,NNW,337,0.0,1.0,59,0.00,,---,0.00,VWS V14.01,2013-03-08 03:40:00,
2013-03-07 22:46:00,35.3,22.4,30.21,NNW,337,0.0,1.0,59,0.00,,---,0.00,VWS V14.01,2013-03-08 03:46:00,
2013-03-07 22:52:00,35.6,22.3,30.21,NNW,337,0.0,1.0,58,0.00,,---,0.00,VWS V14.01,2013-03-08 03:52:00,
2013-03-07 22:58:00,35.8,22.5,30.21,NNW,337,0.0,1.0,58,0.00,,---,0.00,VWS V14.01,2013-03-08 03:58:00,
2013-03-07 23:04:00,35.8,22.5,30.22,NNW,337,0.0,0.0,58,0.00,,---,0.00,VWS V14.01,2013-03-08 04:04:00,
2013-03-07 23:10:00,35.9,23.0,30.22,NNW,337,0.0,0.0,59,0.00,,---,0.00,VWS V14.01,2013-03-08 04:10:00,
2013-03-07 23:16:00,36.0,23.1,30.22,WNW,302,0.0,2.0,59,0.00,,---,0.00,VWS V14.01,2013-03-08 04:16:00,
2013-03-07 23:22:00,35.9,23.4,30.22,WNW,302,0.0,0.0,60,0.00,,---,0.00,VWS V14.01,2013-03-08 04:22:00,
2013-03-07 23:28:00,35.8,23.3,30.22,WSW,250,1.0,3.0,60,0.00,,---,0.00,VWS V14.01,2013-03-08 04:28:00,
2013-03-07 23:34:00,35.8,23.7,30.22,West,259,0.0,2.0,61,0.00,,---,0.00,VWS V14.01,2013-03-08 04:34:00,
2013-03-07 23:40:00,35.8,23.7,30.22,NW,311,2.0,5.0,61,0.00,,---,0.00,VWS V14.01,2013-03-08 04:40:00,
2013-03-07 23:46:00,35.8,23.7,30.21,NW,308,0.0,5.0,61,0.00,,---,0.00,VWS V14.01,2013-03-08 04:46:00,
2013-03-07 23:53:00,35.8,23.7,30.21,WNW,303,0.0,2.0,61,0.00,,---,0.00,VWS V14.01,2013-03-08 04:53:00,
2013-03-07 23:59:00,35.9,23.8,30.21,WNW,297,0.0,3.0,61,0.00,,---,0.00,VWS V14.01,2013-03-08 04:59:00,